FW7233 Weather Reports


Display with metric or nautical units.
time (UTC)temp
F
wind
direction
speed
MPH
gust
MPH
rain 1hr
in
rain 24hr
in
rain mn
in
humidity
%
barometer
mb
20260906050006 55 124 0.0 9.0 0.00 0.26 0.00 91 1019.9
20260906045005 55 308 5.0 11.0 0.00 0.26 0.00 91 1019.7
20260906044012 55 181 2.0 14.0 0.00 0.26 0.00 91 1019.8
20260906043007 55 208 6.0 10.0 0.00 0.26 0.00 91 1019.7
20260906042005 55 172 5.0 10.0 0.00 0.26 0.00 92 1019.6
20260906041007 54 143 0.0 14.0 0.00 0.26 0.00 91 1019.3
20260906040006 54 186 7.0 11.0 0.00 0.26 0.00 92 1019.2
20260906035007 55 144 1.0 10.0 0.00 0.26 0.00 91 1019.3
20260906034005 55 181 1.0 11.0 0.00 0.26 0.00 92 1019.1
20260906033006 55 262 2.0 14.0 0.00 0.26 0.00 92 1019.2
20260906032006 55 178 2.0 11.0 0.00 0.26 0.00 93 1019.0
20260906031007 55 274 1.0 7.0 0.00 0.26 0.00 93 1018.7
20260906030013 55 11 1.0 10.0 0.00 0.26 0.00 93 1018.8
20260906025005 55 129 1.0 8.0 0.00 0.26 0.00 93 1018.6
20260906024007 55 115 1.0 8.0 0.00 0.26 0.00 93 1018.8
20260906021005 55 58 2.0 9.0 0.00 0.26 0.00 93 1018.4
20260906020005 55 15 3.0 9.0 0.00 0.26 0.00 93 1018.5
20260906015005 56 291 3.0 9.0 0.00 0.26 0.00 93 1018.2
20260906013007 55 246 2.0 9.0 0.00 0.26 0.00 94 1018.4
20260906010011 55 135 1.0 7.0 0.00 0.26 0.00 95 1018.2
20260906005005 55 258 5.0 11.0 0.00 0.26 0.00 95 1018.3
20260906004007 55 111 2.0 10.0 0.00 0.26 0.00 95 1018.3
20260906003007 55 260 3.0 8.0 0.00 0.26 0.00 96 1018.4
20260906001005 55 327 3.0 9.0 0.00 0.26 0.00 96 1018.1
20260906000007 55 111 0.0 10.0 0.00 0.26 0.00 96 1018.4
20260905235005 55 68 2.0 8.0 0.00 0.26 0.00 96 1018.1
20260905234005 55 260 2.0 9.0 0.00 0.26 0.00 96 1018.2
20260905233007 55 223 3.0 7.0 0.00 0.26 0.00 97 1018.2
20260905232005 55 140 1.0 10.0 0.00 0.26 0.00 97 1018.0
20260905230005 55 305 3.0 8.0 0.00 0.26 0.00 97 1018.0
20260905225009 55 170 2.0 8.0 0.00 0.26 0.00 98 1018.0
20260905224005 55 265 4.0 8.0 0.00 0.26 0.00 98 1017.9
20260905222005 55 269 2.0 9.0 0.00 0.27 0.00 98 1017.8
20260905221005 55 182 1.0 8.0 0.00 0.27 0.00 98 1017.6
20260905220005 55 265 2.0 10.0 0.00 0.27 0.27 98 1018.0
20260905214007 55 229 3.0 9.0 0.00 0.27 0.27 98 1017.5
20260905212005 55 139 0.0 4.0 0.00 0.27 0.27 99 1017.3
20260905211007 54 152 2.0 8.0 0.00 0.27 0.27 99 1017.4
20260905204008 54 130 0.0 4.0 0.01 0.26 0.27 98 1017.2
20260905203007 54 151 3.0 3.0 0.01 0.26 0.27 98 1017.1
20260905202019 54 188 0.0 6.0 0.01 0.26 0.27 98 1017.0
20260905201005 54 234 2.0 4.0 0.01 0.26 0.27 98 1016.9
20260905200005 54 138 1.0 4.0 0.00 0.26 0.26 98 1016.7
20260905195009 54 268 2.0 6.0 0.00 0.26 0.26 99 1017.1
20260905194004 54 123 1.0 4.0 0.00 0.26 0.26 98 1016.8
20260905193006 54 0 0.0 4.0 0.02 0.27 0.26 98 1016.8
20260905192007 54 157 1.0 4.0 0.03 0.29 0.26 98 1016.6
20260905191007 54 126 0.0 2.0 0.03 0.37 0.26 98 1016.4
20260905190005 55 91 0.0 6.0 0.03 0.38 0.26 97 1016.4
20260905185005 55 254 1.0 7.0 0.03 0.38 0.26 97 1016.6
20260905184007 55 178 4.0 7.0 0.03 0.38 0.26 96 1016.7
20260905183007 56 249 4.0 13.0 0.01 0.38 0.24 95 1016.9
20260905182007 56 200 2.0 14.0 0.00 0.38 0.23 95 1016.8
20260905181005 56 131 1.0 10.0 0.03 0.38 0.23 98 1016.7
20260905180007 55 144 0.0 0.0 0.03 0.35 0.23 98 1016.0
20260905175005 56 151 0.0 3.0 0.03 0.35 0.23 98 1016.0
20260905174006 56 251 1.0 4.0 0.03 0.35 0.23 97 1016.1
20260905173007 56 131 1.0 7.0 0.03 0.35 0.23 97 1016.4
20260905172005 56 173 1.0 8.0 0.03 0.35 0.22 97 1016.3
20260905171005 56 248 2.0 7.0 0.01 0.35 0.20 98 1016.4
20260905170012 56 149 1.0 1.0 0.04 0.31 0.20 98 1015.6
20260905165007 56 142 0.0 1.0 0.07 0.31 0.20 98 1015.7
20260905164008 57 157 0.0 1.0 0.07 0.31 0.20 98 1015.4
20260905163008 57 144 0.0 0.0 0.07 0.31 0.20 97 1015.7
20260905161007 58 159 0.0 9.0 0.06 0.31 0.19 96 1016.1
20260905155005 60 164 1.0 1.0 0.00 0.28 0.13 96 1015.3
20260905154007 61 151 0.0 1.0 0.00 0.28 0.13 95 1015.0
20260905153007 61 148 0.0 2.0 0.00 0.28 0.13 95 1014.8
20260905145005 63 162 1.0 1.0 0.12 0.24 0.13 86 1015.0
20260905144007 64 141 0.0 2.0 0.12 0.24 0.13 83 1015.1
20260905142005 60 153 0.0 2.0 0.12 0.24 0.13 92 1015.0
20260905141005 58 78 1.0 3.0 0.12 0.24 0.13 93 1015.2
20260905140007 61 71 1.0 10.0 0.08 0.16 0.07 86 1015.6
20260905135005 66 174 3.0 11.0 0.00 0.16 0.01 73 1015.0
20260905134004 68 192 4.0 11.0 0.00 0.16 0.01 61 1014.4
20260905133005 71 253 2.0 10.0 0.00 0.16 0.01 61 1014.6
20260905132019 70 281 5.0 14.0 0.00 0.16 0.01 61 1014.5
20260905125007 70 133 0.0 15.0 0.00 0.16 0.01 62 1014.8
20260905123005 70 205 2.0 13.0 0.00 0.16 0.01 58 1014.6
20260905122006 68 6 1.0 9.0 0.00 0.16 0.01 62 1014.6
20260905121005 69 126 1.0 11.0 0.00 0.16 0.01 63 1014.7
20260905115007 67 197 5.0 10.0 0.00 0.16 0.01 63 1015.0
20260905113005 66 308 6.0 13.0 0.00 0.16 0.01 65 1014.8
20260905111005 68 262 3.0 11.0 0.00 0.16 0.01 65 1015.0
20260905110008 67 240 6.0 13.0 0.00 0.16 0.01 65 1014.8
20260905105006 66 207 5.0 18.0 0.00 0.16 0.01 63 1014.8
20260905104007 67 188 2.0 14.0 0.00 0.16 0.01 67 1014.4
20260905103008 69 181 1.0 13.0 0.00 0.16 0.01 64 1014.6
20260905102005 68 262 4.0 18.0 0.00 0.16 0.01 63 1014.4
20260905101005 67 205 4.0 14.0 0.00 0.16 0.01 68 1014.4
20260905095005 67 92 2.0 11.0 0.00 0.16 0.01 67 1014.2
20260905094005 67 344 2.0 9.0 0.00 0.16 0.01 72 1014.2
20260905091005 65 113 1.0 9.0 0.00 0.16 0.01 76 1014.2
20260905090007 66 197 4.0 15.0 0.00 0.16 0.01 73 1013.9
20260905085007 65 172 4.0 14.0 0.00 0.16 0.01 76 1014.1
20260905084005 65 61 2.0 11.0 0.00 0.16 0.01 76 1013.9
20260905081006 65 306 4.0 13.0 0.00 0.16 0.01 76 1013.9
20260905080006 64 299 1.0 9.0 0.00 0.16 0.01 78 1013.9
20260905075006 63 261 6.0 14.0 0.00 0.16 0.01 80 1013.8
20260905073020 63 197 4.0 13.0 0.00 0.16 0.01 83 1013.4
20260905072005 63 337 3.0 10.0 0.00 0.16 0.01 82 1013.2
20260905071006 62 228 6.0 10.0 0.00 0.16 0.01 84 1013.2
20260905070007 62 342 2.0 10.0 0.00 0.16 0.01 85 1013.2
20260905065007 61 341 3.0 14.0 0.00 0.16 0.01 86 1013.1
20260905064006 61 186 6.0 14.0 0.00 0.16 0.01 86 1013.0
20260905063008 61 117 9.0 17.0 0.00 0.16 0.01 85 1012.8
20260905062005 61 272 5.0 14.0 0.00 0.16 0.01 87 1012.8
20260905061005 61 276 10.0 13.0 0.00 0.16 0.01 87 1012.6
20260905060022 61 219 2.0 11.0 0.00 0.16 0.01 88 1012.5
20260905055007 61 89 2.0 11.0 0.00 0.16 0.01 88 1012.6
20260905054007 61 219 7.0 10.0 0.00 0.16 0.01 88 1012.4
20260905053005 61 219 2.0 10.0 0.00 0.16 0.01 90 1012.3
20260905052006 60 263 1.0 6.0 0.00 0.16 0.01 91 1012.2
20260905051006 61 201 4.0 8.0 0.00 0.16 0.01 89 1012.1